Location: ???????
(55.5931°N, 39.3286°E)
Time: 10:35:59
(UTC+00:00)

S3M - Pass Details

Date: 30 May 2025
Orbit: 949 x 1002 km, 83.0° (Epoch: 19 June)

Event Time Altitude Azimuth Distance (km) Brightness Sun altitude
Rises 23:22:21 0° 350° (N) 3,687 7.9 -8.3°
Reaches altitude 10° 23:26:34 10° 17° (NNE) 2,748 7.9 -8.0°
Maximum altitude 23:29:23 13° 44° (NE) 2,529 7.6 -7.8°
Drops below altitude 10° 23:32:13 10° 71° (ENE) 2,759 7.2 -7.6°
Sets 23:36:28 0° 98° (E) 3,713 7.4 -7.3°
